Weather History for Binghamton, NY

Change the Weather History Date:

Saturday, March 24, 2012

  Actual Average Record
Temperature  
Mean Temperature 57 °F 36 °F  
Max Temperature 61 °F 44 °F 67 °F (1987)
Min Temperature 52 °F 27 °F 10 °F (2014)
Degree Days  
Heating Degree Days 8 29  
Month to date heating degree days 431 803  
Since 1 July heating degree days 4788 6002  
Cooling Degree Days 0 0  
Month to date cooling degree days 0 0  
Year to date cooling degree days 0 0  
Growing Degree Days 4 (Base 50)    
Moisture  
Dew Point 35 °F    
Average Humidity 45    
Maximum Humidity 59    
Minimum Humidity 31    
Precipitation  
Precipitation T in 0.10 in 1.05 in (1989)
Month to date precipitation 1.45 2.24  
Year to date precipitation 5.74 7.00  
Snow  
Snow 0.00 in 0.30 in 3.40 in (1966)
Month to date snowfall 4.1 12.7  
Since 1 July snowfall 42.8 76.6  
Snow Depth 0.00 in    
Sea Level Pressure  
Sea Level Pressure 29.99 in    
Wind  
Wind Speed 10 mph (SE)    
Max Wind Speed 17 mph    
Max Gust Speed 22 mph    
Visibility 10 miles    
Events Rain    
T = Trace of Precipitation, MM = Missing Value Source: NWS Daily Summary

Daily Weather History Graph

Daily Weather History Graph

Search for Another Location

Airport:

Trip Planner

Search our weather history database for the weather conditions in past years. The results will help you decide how hot, cold, wet, or windy it might be!

Date:

Astronomy

Mar. 24, 2012 Rise Set
Actual Time 6:59 AM EDT 7:21 PM EDT
Civil Twilight 6:31 AM EDT 7:49 PM EDT
Nautical Twilight 5:58 AM EDT 8:22 PM EDT
Astronomical Twilight 5:24 AM EDT 8:56 PM EDT
Moon 7:34 AM EDT (3/24) 9:42 PM EDT (3/24)
Length of Visible Light 13h 17m
Length of Day
12h 21m
Waxing Crescent, 4% of the Moon is Illuminated
Mar 24
Waxing Crescent
Mar 30
First Quarter
Apr 6
Full
Apr 13
Last Quarter
Apr 21
New

Hourly Weather History & Observations

Time (EDT) Temp. Dew Point Humidity Pressure Visibility Wind Dir Wind Speed Gust Speed Precip Events Conditions
12:53 AM 55.9 °F 35.1 °F 45% 30.05 in 10.0 mi East 6.9 mph - N/A   Mostly Cloudy
1:53 AM 55.9 °F 35.1 °F 45% 30.04 in 10.0 mi ENE 6.9 mph - N/A   Mostly Cloudy
2:53 AM 55.9 °F 35.1 °F 45% 30.03 in 10.0 mi ENE 6.9 mph - N/A   Overcast
3:53 AM 55.0 °F 36.0 °F 49% 30.01 in 10.0 mi East 8.1 mph - N/A   Overcast
4:53 AM 53.6 °F 37.4 °F 54% 30.01 in 10.0 mi East 9.2 mph - N/A   Mostly Cloudy
5:53 AM 54.0 °F 37.9 °F 55% 30.01 in 10.0 mi East 8.1 mph - N/A   Mostly Cloudy
6:53 AM 52.0 °F 37.0 °F 57% 30.02 in 10.0 mi East 9.2 mph - N/A   Partly Cloudy
7:53 AM 52.0 °F 37.0 °F 57% 30.03 in 10.0 mi East 8.1 mph - N/A   Overcast
8:53 AM 52.0 °F 37.0 °F 57% 30.04 in 10.0 mi East 5.8 mph - N/A   Mostly Cloudy
9:53 AM 55.0 °F 30.0 °F 38% 30.03 in 10.0 mi SE 12.7 mph - N/A   Partly Cloudy
10:53 AM 57.0 °F 28.0 °F 33% 30.03 in 10.0 mi SSE 15.0 mph - N/A   Partly Cloudy
11:53 AM 57.9 °F 28.0 °F 32% 30.01 in 10.0 mi SE 12.7 mph - N/A   Mostly Cloudy
12:53 PM 57.9 °F 28.9 °F 33% 30.00 in 10.0 mi SSE 10.4 mph - N/A   Overcast
1:53 PM 59.0 °F 28.9 °F 32% 29.98 in 10.0 mi SE 15.0 mph - N/A   Overcast
2:53 PM 57.9 °F 28.9 °F 33% 29.97 in 10.0 mi SE 12.7 mph - N/A   Overcast
3:53 PM 57.9 °F 30.0 °F 35% 29.96 in 10.0 mi SSE 6.9 mph - 0.00 in   Overcast
4:53 PM 55.0 °F 36.0 °F 49% 29.97 in 10.0 mi South 9.2 mph 17.3 mph 0.00 in Rain Light Rain
5:53 PM 50.0 °F 41.0 °F 71% 29.96 in 10.0 mi South 6.9 mph - N/A Rain Light Rain
6:53 PM 51.1 °F 39.9 °F 66% 29.96 in 10.0 mi SE 6.9 mph - 0.00 in   Overcast
7:53 PM 52.0 °F 37.0 °F 57% 29.95 in 10.0 mi South 3.5 mph - N/A   Overcast
8:53 PM 52.0 °F 36.0 °F 54% 29.95 in 10.0 mi South 3.5 mph - N/A   Overcast
9:53 PM 52.0 °F 35.1 °F 53% 29.94 in 10.0 mi South 4.6 mph - 0.00 in   Overcast
10:19 PM 50.0 °F 37.4 °F 62% 29.94 in 10.0 mi SSE 5.8 mph - 0.00 in Rain Light Rain
10:53 PM 50.0 °F 37.0 °F 61% 29.94 in 10.0 mi South 3.5 mph - 0.00 in   Overcast
11:53 PM 46.9 °F 35.1 °F 63% 29.94 in 10.0 mi SSE 13.8 mph - 0.00 in   Overcast